Left ArrowRight Arrow

44.8408, -93.29828

Hourly Observations for June 21, 2024

Temp ( °F °C ) Dew Point ( °F °C ) Humidity (%) Winds ( mph kmh ) Pressure ( in mb ) Visibility ( mi km ) Precip ( " mm )
12:53 am 00:53 Cloudy 65 18.3 60 15.6 84 84 N 6 9 30.24 1024 10 16 0.00 0.00
1:53 am 01:53 Cloudy 66 18.9 61 16.1 84 84 NE 7 11 30.23 1024 10 16 0.00 0.00
2:53 am 02:53 Cloudy 65 18.3 62 16.7 90 90 E 5 7 30.22 1024 10 16 0.00 0.00
3:03 am 03:03 Cloudy 65 18.3 62 16.7 90 90 ESE 6 9 30.21 1023 10 16 0.00 0.00
3:53 am 03:53 Cloudy 65 18.3 62 16.7 90 90 E 5 7 30.20 1023 10 16 0.00 0.00
4:53 am 04:53 Cloudy with Light Rain 65 18.3 64 17.8 97 97 Calm 30.21 1023 6 10 0.01 0.13
5:08 am 05:08 Cloudy with Rain 65 18.3 63 17.2 93 93 Calm 30.20 1023 5 8 0.02 0.51
5:51 am 05:51 Cloudy with Rain 64 18 63 17 94 94 E 7 11 30.20 1023 4 6 0.14 3.56
5:53 am 05:53 Cloudy with Light Rain 65 18.3 63 17.2 93 93 E 7 11 30.21 1023 4 6 0.14 3.56
6:39 am 06:39 Cloudy with Light Rain 65 18.3 63 17.2 93 93 E 5 7 30.19 1022 5 8 0.07 1.78
6:53 am 06:53 Cloudy with Light Rain 65 18.3 63 17.2 93 93 ENE 10 17 30.17 1022 5 8 0.08 2.03
7:53 am 07:53 Cloudy 65 18.3 63 17.2 93 93 E 13 20 30.14 1021 10 16 0.01 0.25
8:53 am 08:53 Cloudy 66 18.9 64 17.8 93 93 E 9 15 30.16 1021 10 16 0.00 0.00
9:53 am 09:53 Cloudy 68 20 64 17.8 87 87 ENE 8 13 30.15 1021 10 16 0.00 0.00
10:06 am 10:06 Cloudy 68 20 64 17.8 87 87 ENE 8 13 30.14 1021 10 16 0.00 0.00
10:16 am 10:16 Cloudy 68 20 64 17.8 87 87 E 6 9 30.14 1021 10 16 0.00 0.00
10:53 am 10:53 Cloudy 70 21.1 64 17.8 81 81 ENE 6 9 30.15 1021 10 16 0.00 0.00
11:27 am 11:27 Cloudy 70 21.1 64 17.8 81 81 ENE 10 17 30.12 1020 10 16 0.00 0.00
11:53 am 11:53 Cloudy 70 21.1 64 17.8 81 81 ENE 12 19 30.14 1021 10 16 0.00 0.00
12:53 pm 12:53 Cloudy 70 21.1 63 17.2 78 78 ENE 12 19 30.14 1021 10 16 0.00 0.00
1:09 pm 13:09 Cloudy 70 21.1 64 17.8 81 81 E 9 15 30.11 1020 10 16 0.00 0.00
1:19 pm 13:19 Cloudy 70 21.1 64 17.8 81 81 E 9 15 30.11 1020 10 16 0.00 0.00
1:53 pm 13:53 Cloudy with Light Rain 69 20.6 65 18.3 87 87 ENE 8 13 30.12 1020 7 11 0.02 0.51
2:14 pm 14:14 Cloudy with Light Rain 68 20 65 18.3 90 90 ENE 12 19 30.08 1019 7 11 0.03 0.76
2:36 pm 14:36 Cloudy with Light Rain 68 20 65 18.3 90 90 E 9 15 30.09 1019 8 13 0.04 1.02
2:53 pm 14:53 Cloudy with Light Rain 68 20 65 18.3 90 90 E 7 11 30.11 1020 8 13 0.06 1.52
3:08 pm 15:08 Cloudy with Light Rain 69 20.6 66 18.9 90 90 ENE 7 11 30.09 1019 10 16 0.01 0.13
3:53 pm 15:53 Cloudy 69 20.6 66 18.9 90 90 E 10 17 30.08 1019 10 16 0.01 0.13
4:53 pm 16:53 Cloudy 69 20.6 65 18.3 87 87 E 10 17 30.06 1018 10 16 0.00 0.00
5:24 pm 17:24 Cloudy 69 20.6 65 18.3 87 87 ENE 8 13 30.05 1017 10 16 0.00 0.00
5:53 pm 17:53 Cloudy with Light Rain 69 20.6 65 18.3 87 87 ENE 10 17 30.06 1018 10 16 0.01 0.13
6:53 pm 18:53 Cloudy 69 20.6 65 18.3 87 87 ENE 9 15 30.03 1017 10 16 0.03 0.76
7:53 pm 19:53 Cloudy 68 20 65 18.3 90 90 E 8 13 30.00 1016 10 16 0.00 0.00
8:53 pm 20:53 Cloudy 68 20 65 18.3 90 90 E 10 17 29.99 1016 10 16 0.00 0.00
9:23 pm 21:23 Cloudy 68 20 65 18.3 90 90 E 13 20 29.98 1015 10 16 0.00 0.00
9:53 pm 21:53 Cloudy with Light Rain 67 19.4 64 17.8 90 90 E 13 20 29.99 1016 10 16 0.01 0.13
9:58 pm 21:58 Cloudy 67 19.4 64 17.8 90 90 E 14 22 29.98 1015 10 16 0.01 0.13
10:33 pm 22:33 Cloudy with Light Rain 67 19.4 65 18.3 93 93 ENE 9 15 29.98 1015 10 16 0.01 0.13
10:43 pm 22:43 Cloudy with Light Rain 67 19.4 65 18.3 93 93 E 12 19 29.97 1015 10 16 0.01 0.13
10:53 pm 22:53 Cloudy with Light Rain 67 19.4 65 18.3 93 93 ENE 8 13 29.98 1015 7 11 0.01 0.13
11:49 pm 23:49 Cloudy with Nearby Thunderstorms 66 19 64 18 94 94 ESE 14 22 29.96 1015 5 8 0.04 1.02
11:53 pm 23:53 Cloudy with Nearby Thunderstorms 67 19.4 65 18.3 93 93 ESE 12 19 29.97 1015 5 8 0.05 1.27

Powered by Vaisala Xweather